Home   Weather   Madagascar   Antsiranana   Past weeks
Flag for Madagascar

Past Weather in Antsiranana, Madagascar — Yesterday and Last 2 Weeks

Currently: 79 °F. Passing clouds. (Weather station: Dzaoudzi / Pamanzi Mayotte, Madagascar). See more current weather

Past Weather in Antsiranana — Graph

°F

Antsiranana Temperature Yesterday

Maximum temperature yesterday: 84 °F (at 1:30 pm)
Minimum temperature yesterday: 75 °F (at 9:00 am)
Average temperature yesterday: 79 °F

High & Low Weather Summary for the Past Weeks

 TemperatureHumidityPressure
High88 °F (Oct 4, 10:00 am)94% (Oct 2, 6:00 am)30.04 "Hg (Oct 2, 6:00 am)
Low72 °F (Oct 2, 4:00 am)52% (Oct 2, 11:00 am)29.83 "Hg (Oct 8, 2:00 am)
Average80 °F75%29.94 "Hg
* Reported Oct 2 3:00 am — Oct 17 3:00 am, Antsiranana. Weather by CustomWeather, © 2021

Note: Actual official high and low records may vary slightly from our data, if they occured in-between our weather recording intervals... More about our weather records

Antsiranana Weather History for the Previous 24 Hours

Scroll right to see more
 ConditionsComfort  
Time TempWeatherWind HumidityBarometerVisibility
3:00 am
Sun, Oct 17
79 °FPassing clouds.9 mph74%29.89 "HgN/A
2:30 am79 °FPassing clouds.12 mph79%29.89 "HgN/A
2:00 am79 °FPassing clouds.13 mph74%29.89 "HgN/A
1:30 am79 °FPartly cloudy.12 mph74%29.89 "HgN/A
1:00 am79 °FPassing clouds.10 mph79%29.89 "HgN/A
12:30 am79 °FPassing clouds.7 mph74%29.89 "HgN/A
12:00 am79 °FPassing clouds.10 mph74%29.89 "HgN/A
11:30 pm
Sat, Oct 16
77 °FPassing clouds.8 mph79%29.92 "HgN/A
11:00 pm77 °FPassing clouds.5 mph79%29.92 "HgN/A
10:30 pm79 °FPartly cloudy.6 mph74%29.92 "HgN/A
10:00 pm79 °FPartly cloudy.6 mph74%29.92 "HgN/A
9:30 pm79 °FClear.9 mph70%29.92 "Hg10 mi
9:00 pm79 °FClear.7 mph70%29.92 "Hg10 mi
8:30 pm79 °FPassing clouds.5 mph70%29.92 "HgN/A
8:00 pm79 °FPassing clouds.5 mph70%29.92 "HgN/A
7:30 pm79 °FClear.6 mph70%29.92 "Hg10 mi
7:00 pm79 °FPassing clouds.6 mph70%29.92 "HgN/A
6:30 pm79 °FClear.6 mph65%29.89 "HgN/A
6:00 pm79 °FPassing clouds.7 mph65%29.89 "HgN/A
5:30 pm81 °FSunny.9 mph66%29.89 "Hg10 mi
5:00 pm81 °FPassing clouds.7 mph62%29.89 "HgN/A
4:30 pm81 °FPassing clouds.9 mph66%29.86 "HgN/A
4:00 pm82 °FSunny.10 mph62%29.86 "Hg10 mi
3:30 pm84 °FSunny.14 mph58%29.86 "Hg10 mi
3:00 pm84 °FSunny.16 mph55%29.86 "Hg10 mi
2:30 pm84 °FSunny.14 mph55%29.86 "Hg10 mi
2:00 pm84 °FPassing clouds.12 mph58%29.86 "HgN/A
1:30 pm84 °FSunny.13 mph58%29.89 "Hg10 mi
1:00 pm82 °FSunny.3 mph70%29.89 "Hg10 mi
11:30 am79 °FOvercast.6 mph79%29.95 "HgN/A
11:00 am77 °FOvercast.6 mph83%29.95 "HgN/A
10:30 am75 °FMore clouds than sun.8 mph89%29.95 "HgN/A
10:00 am75 °FPartly sunny.13 mph89%29.95 "HgN/A
9:30 am75 °FMostly cloudy.15 mph89%29.95 "HgN/A
9:00 am75 °FPartly sunny.14 mph89%29.95 "HgN/A
8:30 am77 °FOvercast.10 mph83%29.95 "HgN/A
8:00 am79 °FPartly sunny.9 mph74%29.95 "HgN/A
7:30 am81 °FPassing clouds.12 mph70%29.92 "HgN/A
7:00 am79 °FMore clouds than sun.15 mph79%29.92 "HgN/A
6:30 am79 °FMostly cloudy.12 mph79%29.92 "HgN/A
6:00 am79 °FMostly cloudy.12 mph79%29.89 "HgN/A
5:30 am77 °FPartly cloudy.9 mph83%29.89 "HgN/A
5:00 am77 °FLight rain. Partly cloudy.5 mph89%29.89 "HgN/A
4:30 am77 °FLight rain. Mostly cloudy.2 mph89%29.89 "HgN/A
4:00 am77 °FLight rain. Partly cloudy.3 mph89%29.89 "HgN/A
Weather by CustomWeather, © 2021

See weather overview